Hermiston, OR

7:16 PM PDT on August 29, 2016 (GMT -0700)
Hermiston Municipal

Weather History for KHRI - September, 2013

Change the Weather History Date:

Monday, September 30, 2013

  Actual Average Record
Temperature  
Mean Temperature 56 °F -  
Max Temperature 66 °F 75 °F 88 °F (1976)
Min Temperature 48 °F 43 °F 27 °F (1933)
Degree Days  
Heating Degree Days 9    
Growing Degree Days 6 (Base 50)    
Moisture  
Dew Point 41 °F    
Average Humidity 58    
Maximum Humidity 88    
Minimum Humidity 38    
Precipitation  
Precipitation 0.11 in - - ()
Sea Level Pressure  
Sea Level Pressure 29.78 in    
Wind  
Wind Speed 18 mph (WSW)    
Max Wind Speed 28 mph    
Max Gust Speed 46 mph    
Visibility 10 miles    
Events Rain    
Averages and records for this station are not official NWS values.
T = Trace of Precipitation, MM = Missing Value Source: NWS Daily Summary

Daily Weather History Graph

Daily Weather History Graph

Search for Another Location

Airport or City:

Trip Planner

Search our weather history database for the weather conditions in past years. The results will help you decide how hot, cold, wet, or windy it might be!

Date:

Astronomy

Sep. 30, 2013 Rise Set
Actual Time 6:54 AM PDT 6:38 PM PDT
Civil Twilight 6:24 AM PDT 7:08 PM PDT
Nautical Twilight 5:50 AM PDT 7:42 PM PDT
Astronomical Twilight 5:15 AM PDT 8:17 PM PDT
Moon 2:24 AM PDT 4:21 PM PDT
Length of Visible Light 12h 43m
Length of Day
11h 43m
Waning Crescent, 18% of the Moon is Illuminated
Sep 30
Waning Crescent
Oct 4
New
Oct 11
First Quarter
Oct 18
Full
Oct 26
Last Quarter

Hourly Weather History & Observations

Time (PDT) Temp. Dew Point Humidity Pressure Visibility Wind Dir Wind Speed Gust Speed Precip Events Conditions
12:14 AM 57.2 °F 53.6 °F 88% 29.48 in 3.0 mi West 26.5 mph 46.0 mph 0.04 in Rain Rain
12:53 AM 55.9 °F 50.0 °F 80% 29.51 in 10.0 mi West 23.0 mph 39.1 mph 0.10 in Rain Light Rain
1:53 AM 53.1 °F 46.0 °F 77% 29.58 in 10.0 mi WSW 19.6 mph 26.5 mph 0.01 in   Overcast
2:53 AM 52.0 °F 41.0 °F 66% 29.61 in 10.0 mi SW 17.3 mph 26.5 mph N/A   Clear
3:53 AM 48.9 °F 41.0 °F 74% 29.65 in 10.0 mi Calm Calm - N/A   Clear
4:53 AM 51.1 °F 39.0 °F 63% 29.67 in 10.0 mi SW 13.8 mph - N/A   Clear
5:53 AM 54.0 °F 39.0 °F 57% 29.69 in 10.0 mi SW 13.8 mph 23.0 mph N/A   Clear
6:53 AM 52.0 °F 37.9 °F 59% 29.71 in 10.0 mi SW 12.7 mph - N/A   Clear
7:53 AM 53.1 °F 36.0 °F 52% 29.73 in 10.0 mi SSW 17.3 mph 23.0 mph N/A   Clear
8:53 AM 57.0 °F 37.0 °F 47% 29.75 in 10.0 mi SW 19.6 mph 27.6 mph N/A   Clear
9:53 AM 61.0 °F 37.9 °F 42% 29.76 in 10.0 mi SW 25.3 mph 36.8 mph N/A   Clear
10:53 AM 63.0 °F 37.9 °F 40% 29.79 in 10.0 mi WSW 27.6 mph 36.8 mph N/A   Clear
11:53 AM 63.0 °F 39.0 °F 41% 29.81 in 10.0 mi WSW 20.7 mph 32.2 mph N/A   Mostly Cloudy
12:53 PM 64.0 °F 39.9 °F 41% 29.83 in 10.0 mi WSW 21.9 mph 27.6 mph N/A   Mostly Cloudy
1:53 PM 63.0 °F 39.9 °F 43% 29.84 in 10.0 mi West 12.7 mph 18.4 mph N/A   Overcast
2:53 PM 64.0 °F 37.9 °F 38% 29.86 in 10.0 mi WSW 25.3 mph 35.7 mph N/A   Partly Cloudy
3:53 PM 63.0 °F 42.1 °F 46% 29.87 in 10.0 mi West 21.9 mph 32.2 mph N/A   Clear
4:53 PM 63.0 °F 43.0 °F 48% 29.88 in 10.0 mi West 13.8 mph 23.0 mph N/A   Clear
5:53 PM 57.9 °F 43.0 °F 58% 29.89 in 10.0 mi West 8.1 mph - N/A   Partly Cloudy
6:53 PM 57.0 °F 43.0 °F 59% 29.91 in 10.0 mi West 12.7 mph - N/A   Mostly Cloudy
7:53 PM 55.0 °F 42.1 °F 62% 29.93 in 10.0 mi West 12.7 mph - N/A   Partly Cloudy
8:53 PM 55.0 °F 42.1 °F 62% 29.95 in 10.0 mi WSW 12.7 mph - N/A   Overcast
9:53 PM 53.1 °F 39.9 °F 61% 29.96 in 10.0 mi WSW 9.2 mph - N/A   Scattered Clouds
10:53 PM 52.0 °F 42.1 °F 69% 29.97 in 10.0 mi SW 9.2 mph - N/A   Scattered Clouds
11:53 PM 52.0 °F 41.0 °F 66% 29.97 in 10.0 mi WSW 10.4 mph - N/A   Mostly Cloudy